Location: Newark
(59.4564°N, 26.6917°E)
Time: 08:18:52
(UTC+00:00)

SR - Pass Details

Date: 28 November 2019
Orbit: 573 x 882 km, 66.7° (Epoch: 05 December)

Event Time Altitude Azimuth Distance (km) Brightness Sun altitude
Rises 20:03:31 0° 311° (NW) 3,493 ? -46.5°
Reaches altitude 10° 20:06:29 10° 298° (WNW) 2,552 ? -46.8°
Enters shadow 20:06:44 11° 297° (WNW) 2,481 ? -46.8°
Maximum altitude 20:11:01 23° 249° (WSW) 1,769 - -47.2°
Drops below altitude 10° 20:15:28 10° 199° (SSW) 2,485 - -47.5°
Sets 20:18:20 0° 185° (S) 3,379 - -47.7°
